This demonstration page uses our WeatherBlox Daily Observations layout. Learn more.

38.89511, -77.03637

Hourly Observations for February 11, 2019

Temp ( °F °C ) Dew Point ( °F °C ) Humidity (%) Winds ( mph kmh ) Pressure ( in mb ) Visibility ( mi km ) Precip ( " mm )
12:24 am 00:24 Cloudy with Light Rain 34 1.1 31 -0.6 89 89 S 7 11 30.36 1028 6 9.656064 0.02 0.508
12:52 am 00:52 Cloudy with Light Rain 34 1.1 30 -1.1 85 85 SSW 7 11 30.33 1027 8 12.874752 0.04 1.016
1:10 am 01:10 Cloudy with Light Rain 34 1.1 31 -0.6 89 89 S 3 6 30.33 1027 10 16.09344 0.01 0.254
1:52 am 01:52 Cloudy with Light Rain 34 1.1 30 -1.1 85 85 SE 5 7 30.3 1026 10 16.09344 0.03 0.762
2:52 am 02:52 Cloudy with Light Rain 34 1.1 31 -0.6 89 89 E 3 6 30.3 1026 8 12.874752 0.02 0.508
3:17 am 03:17 Cloudy with Light Rain 34 1.1 30 -1.1 85 85 Calm 30.3 1026 9 14.484096 0.01 0.254
3:52 am 03:52 Cloudy with Light Rain 34 1.1 31 -0.6 89 89 Calm 30.27 1025 10 16.09344 0.02 0.508
4:14 am 04:14 Cloudy with Light Rain 34 1.1 30 -1.1 85 85 E 3 6 30.27 1025 10 16.09344 0.01 0.254
4:52 am 04:52 Cloudy with Light Rain 34 1.1 31 -0.6 89 89 ESE 5 7 30.24 1024 10 16.09344 0.03 0.762
5:32 am 05:32 Cloudy with Light Rain 35 1.7 31 -0.6 85 85 ESE 3 6 30.27 1025 10 16.09344 0.001 0.001
5:39 am 05:39 Cloudy with Light Rain 35 1.7 31 -0.6 85 85 E 3 6 30.27 1025 10 16.09344 0.001 0.001
5:52 am 05:52 Cloudy with Light Rain 35 1.7 31 -0.6 85 85 Calm 30.27 1025 8 12.874752 0.01 0.254
5:55 am 05:55 Cloudy with Light Rain 35 1.7 31 -0.6 85 85 Calm 30.27 1025 8 12.874752 0.001 0.001
6:31 am 06:31 Cloudy with Light Rain 35 1.7 31 -0.6 85 85 ENE 6 9 30.27 1025 5 8.04672 0.02 0.508
6:38 am 06:38 Cloudy with Light Rain 34 1.1 31 -0.6 89 89 E 7 11 30.27 1025 7 11.265408 0.02 0.508
6:52 am 06:52 Cloudy with Light Rain 35 1.7 31 -0.6 85 85 E 5 7 30.24 1024 5 8.04672 0.03 0.762
7:02 am 07:02 Cloudy with Light Rain 35 1.7 31 -0.6 85 85 E 5 7 30.27 1025 9 14.484096 0.001 0.001
7:52 am 07:52 Cloudy with Light Rain 35 1.7 31 -0.6 85 85 Calm 30.27 1025 7 11.265408 0.02 0.508
7:59 am 07:59 Cloudy with Light Rain 35 1.7 31 -0.6 85 85 E 5 7 30.27 1025 7 11.265408 0.001 0.001
8:52 am 08:52 Cloudy with Light Rain 35 1.7 32 0 89 89 E 5 7 30.27 1025 7 11.265408 0.03 0.762
9:52 am 09:52 Cloudy with Light Rain 36 2.2 32 0 86 86 ENE 5 7 30.27 1025 10 16.09344 0.02 0.508
10:20 am 10:20 Cloudy with Light Rain 36 2.2 32 0 86 86 ENE 7 11 30.3 1026 10 16.09344 0.001 0.001
10:48 am 10:48 Cloudy with Light Rain 36 2 32 0 87 87 E 7 11 30.3 1026 10 16.09344 0.01 0.254
10:52 am 10:52 Cloudy with Light Rain 36 2.2 32 0 86 86 E 7 11 30.27 1025 10 16.09344 0.01 0.254
11:01 am 11:01 Cloudy with Light Rain 37 2.8 32 0 82 82 ENE 7 11 30.3 1026 10 16.09344 0.001 0.001
11:11 am 11:11 Cloudy 37 2.8 32 0 82 82 ENE 7 11 30.3 1026 10 16.09344 0.001 0.001
11:52 am 11:52 Cloudy with Light Rain 37 2.8 33 0.6 86 86 ENE 5 7 30.27 1025 10 16.09344 0.001 0.001
12:52 pm 12:52 Cloudy with Light Rain 37 2.8 33 0.6 86 86 NE 5 7 30.24 1024 10 16.09344 0.02 0.508
1:52 pm 13:52 Cloudy with Light Rain 37 2.8 33 0.6 86 86 ENE 7 11 30.24 1024 7 11.265408 0.04 1.016
2:01 pm 14:01 Cloudy with Light Rain 37 2.8 33 0.6 86 86 NE 7 11 30.27 1025 8 12.874752 0.01 0.254
2:34 pm 14:34 Cloudy with Light Rain 37 2.8 33 0.6 86 86 NE 7 11 30.24 1024 10 16.09344 0.03 0.762
2:52 pm 14:52 Cloudy with Light Rain 38 3.3 33 0.6 83 83 ENE 6 9 30.24 1024 10 16.09344 0.03 0.762
3:28 pm 15:28 Cloudy with Light Rain 37 2.8 33 0.6 86 86 E 6 9 30.27 1025 10 16.09344 0.001 0.001
3:52 pm 15:52 Cloudy with Light Rain 37 2.8 33 0.6 86 86 E 8 13 30.24 1024 10 16.09344 0.001 0.001
4:52 pm 16:52 Cloudy 37 2.8 32 0 82 82 ENE 10 17 30.24 1024 10 16.09344 0.001 0.001
5:20 pm 17:20 Cloudy 37 2.8 32 0 82 82 ENE 10 17 30.27 1025 10 16.09344 0 0
5:36 pm 17:36 Cloudy 37 2.8 32 0 82 82 ENE 8 13 30.27 1025 10 16.09344 0 0
5:52 pm 17:52 Cloudy 36 2.2 32 0 86 86 ENE 12 19 30.27 1025 10 16.09344 0 0
6:52 pm 18:52 Cloudy 36 2.2 32 0 86 86 ENE 8 13 30.3 1026 10 16.09344 0 0
7:33 pm 19:33 Cloudy 36 2.2 31 -0.6 82 82 NE 9 15 30.3 1026 10 16.09344 0 0
7:52 pm 19:52 Cloudy 36 2.2 32 0 86 86 NE 12 19 30.3 1026 10 16.09344 0 0
8:01 pm 20:01 Cloudy 35 1.7 31 -0.6 85 85 NE 10 17 30.3 1026 10 16.09344 0 0
8:52 pm 20:52 Cloudy 35 1.7 31 -0.6 85 85 NE 13 20 30.3 1026 9 14.484096 0 0
9:52 pm 21:52 Cloudy with Light Drizzle 35 1.7 32 0 89 89 ENE 9 15 30.3 1026 3 4.828032 0.001 0.001
10:08 pm 22:08 Cloudy with Light Drizzle 35 1.7 32 0 89 89 NE 10 17 30.33 1027 3 4.828032 0.001 0.001
10:40 pm 22:40 Cloudy with Light Drizzle 35 1.7 32 0 89 89 ENE 10 17 30.33 1027 3 4.828032 0.001 0.001
10:52 pm 22:52 Cloudy with Light Drizzle 35 1.7 32 0 89 89 ENE 10 17 30.3 1026 4 6.437376 0.001 0.001
11:33 pm 23:33 Cloudy with Light Drizzle 35 1.7 32 0 89 89 ENE 9 15 30.33 1027 2.5 4.02336 0.01 0.254
11:45 pm 23:45 Cloudy with Light Drizzle 35 1.7 32 0 89 89 ENE 8 13 30.33 1027 4 6.437376 0.01 0.254
11:52 pm 23:52 Cloudy with Light Drizzle 35 1.7 32 0 89 89 NE 9 15 30.3 1026 4 6.437376 0.01 0.254

Powered by AerisWeather